This demonstration page uses our WeatherBlox Daily Observations layout. Learn more.

Left ArrowRight Arrow

Hourly Observations for October 17, 2022

Temp ( °F °C ) Dew Point ( °F °C ) Humidity (%) Winds ( mph kmh ) Pressure ( in mb ) Visibility ( mi km ) Precip ( " mm )
12:51 am 00:51 Clear 52 11.1 48 8.9 86 86 ESE 7 11 30.00 1016 10 16 0.00 0.00
1:51 am 01:51 Clear 52 11.1 47 8.3 83 83 E 9 15 30.00 1016 10 16 0.00 0.00
2:51 am 02:51 Clear 50 10 48 8.9 93 93 SSE 9 15 30.01 1016 10 16 0.00 0.00
3:51 am 03:51 Mostly Cloudy 51 10.6 47 8.3 86 86 SE 9 15 30.02 1017 10 16 0.00 0.00
5:51 am 05:51 Mostly Clear 53 11.7 45 7.2 74 74 E 9 15 30.05 1018 10 16 0.00 0.00
6:51 am 06:51 Cloudy 53 11.7 46 7.8 77 77 E 8 13 30.06 1018 10 16 0.00 0.00
7:51 am 07:51 Cloudy 56 13.3 47 8.3 72 72 ESE 7 11 30.08 1019 10 16 0.00 0.00
8:51 am 08:51 Mostly Cloudy 59 15 47 8.3 64 64 ESE 10 17 30.09 1019 10 16 0.00 0.00
9:51 am 09:51 Partly Cloudy 61 16.1 48 8.9 62 62 ESE 8 13 30.09 1019 10 16 0.00 0.00
10:51 am 10:51 Mostly Sunny 66 18.9 48 8.9 52 52 E 13 20 30.05 1018 10 16 0.00 0.00
11:51 am 11:51 Cloudy 66 18.9 49 9.4 54 54 E 13 20 30.04 1017 10 16 0.00 0.00
12:51 pm 12:51 Mostly Cloudy 68 20 50 10 53 53 VRB 7 11 30.00 1016 10 16 0.00 0.00
1:51 pm 13:51 Mostly Sunny 70 21.1 50 10 49 49 SE 13 20 29.98 1015 10 16 0.00 0.00
2:51 pm 14:51 Partly Cloudy 71 21.7 48 8.9 44 44 SE 15 24 29.97 1015 10 16 0.00 0.00
3:51 pm 15:51 Cloudy 73 22.8 47 8.3 39 39 ESE 13 20 29.96 1014 10 16 0.00 0.00
4:51 pm 16:51 Mostly Sunny 70 21.1 47 8.3 44 44 E 7 11 29.96 1015 10 16 0.00 0.00
5:51 pm 17:51 Partly Cloudy 67 19.4 47 8.3 49 49 ESE 12 19 29.98 1015 10 16 0.00 0.00
6:51 pm 18:51 Partly Cloudy 64 17.8 49 9.4 58 58 ESE 9 15 30.02 1017 10 16 0.00 0.00
7:51 pm 19:51 Clear 62 16.7 48 8.9 60 60 SE 10 17 30.04 1017 10 16 0.00 0.00
8:51 pm 20:51 Cloudy 60 15.6 49 9.4 67 67 SSE 8 13 30.04 1017 10 16 0.00 0.00
9:51 pm 21:51 Partly Cloudy 58 14.4 49 9.4 72 72 SSE 8 13 30.06 1018 10 16 0.00 0.00
10:51 pm 22:51 Clear 57 13.9 49 9.4 74 74 SE 9 15 30.06 1018 10 16 0.00 0.00
11:51 pm 23:51 Clear 56 13.3 49 9.4 77 77 SE 8 13 30.06 1018 10 16 0.00 0.00

Powered by AerisWeather